| time (UTC) | temp F | wind direction | speed MPH | gust MPH | rain 1hr in | rain 24hr in | rain mn in | humidity % | barometer mb |
| 20260906015623 | 57 | 320 | 0.0 | 1.0 | 0.00 | 0.01 | 0.00 | 76 | 980.3 |
| 20260906015617 | 57 | 321 | 0.0 | 3.0 | 0.00 | 0.01 | 0.00 | 77 | 980.1 |
| 20260906014617 | 58 | 319 | 0.0 | 3.0 | 0.00 | 0.01 | 0.00 | 76 | 980.1 |
| 20260906014121 | 58 | 319 | 0.0 | 3.0 | 0.00 | 0.01 | 0.00 | 76 | 980.1 |
| 20260906013616 | 58 | 330 | 0.0 | 10.0 | 0.00 | 0.01 | 0.00 | 76 | 980.1 |
| 20260906013121 | 58 | 321 | 0.0 | 11.0 | 0.00 | 0.01 | 0.00 | 76 | 980.1 |
| 20260906012622 | 58 | 319 | 4.0 | 11.0 | 0.00 | 0.01 | 0.00 | 76 | 980.1 |
| 20260906012616 | 58 | 305 | 5.0 | 11.0 | 0.00 | 0.01 | 0.00 | 76 | 980.1 |
| 20260906011624 | 58 | 353 | 3.0 | 10.0 | 0.00 | 0.01 | 0.00 | 75 | 979.8 |
| 20260906011616 | 58 | 329 | 6.0 | 11.0 | 0.00 | 0.01 | 0.00 | 75 | 980.0 |
| 20260906010616 | 59 | 319 | 2.0 | 10.0 | 0.00 | 0.01 | 0.00 | 75 | 979.9 |
| 20260906010129 | 59 | 350 | 4.0 | 11.0 | 0.00 | 0.01 | 0.00 | 75 | 979.8 |
| 20260906010120 | 59 | 347 | 4.0 | 10.0 | 0.00 | 0.01 | 0.00 | 75 | 979.8 |
| 20260906005121 | 59 | 307 | 0.0 | 11.0 | 0.00 | 0.01 | 0.00 | 75 | 979.9 |
| 20260906004617 | 59 | 329 | 5.0 | 11.0 | 0.00 | 0.01 | 0.00 | 75 | 979.9 |
| 20260906004120 | 59 | 319 | 2.0 | 11.0 | 0.00 | 0.01 | 0.00 | 75 | 979.8 |
| 20260906003616 | 60 | 312 | 3.0 | 11.0 | 0.00 | 0.01 | 0.00 | 73 | 979.8 |
| 20260906003129 | 60 | 305 | 3.0 | 10.0 | 0.00 | 0.01 | 0.00 | 72 | 979.8 |
| 20260906003120 | 60 | 310 | 4.0 | 11.0 | 0.00 | 0.01 | 0.00 | 73 | 979.7 |
| 20260906002120 | 61 | 331 | 0.0 | 10.0 | 0.00 | 0.01 | 0.00 | 72 | 979.9 |
| 20260906001617 | 61 | 264 | 2.0 | 9.0 | 0.00 | 0.01 | 0.00 | 72 | 979.8 |
| 20260906001115 | 61 | 282 | 3.0 | 9.0 | 0.00 | 0.01 | 0.00 | 72 | 979.9 |
| 20260906000614 | 61 | 344 | 0.0 | 9.0 | 0.00 | 0.01 | 0.00 | 72 | 979.8 |
| 20260906000122 | 62 | 323 | 4.0 | 13.0 | 0.00 | 0.01 | 0.00 | 71 | 979.8 |
| 20260906000115 | 62 | 296 | 1.0 | 12.0 | 0.00 | 0.01 | 0.00 | 72 | 979.8 |
| 20260905235740 | 62 | 266 | 2.0 | 13.0 | 0.00 | 0.01 | 0.00 | 71 | 979.8 |
| 20260905234614 | 62 | 285 | 2.0 | 11.0 | 0.00 | 0.01 | 0.00 | 70 | 979.7 |
| 20260905234117 | 62 | 274 | 4.0 | 11.0 | 0.00 | 0.01 | 0.00 | 69 | 979.8 |
| 20260905233616 | 63 | 302 | 1.0 | 11.0 | 0.00 | 0.01 | 0.00 | 69 | 979.8 |
| 20260905233115 | 63 | 302 | 2.0 | 11.0 | 0.00 | 0.01 | 0.00 | 70 | 979.7 |
| 20260905232613 | 63 | 295 | 2.0 | 11.0 | 0.00 | 0.01 | 0.00 | 70 | 979.7 |
| 20260905232114 | 63 | 261 | 4.0 | 11.0 | 0.00 | 0.01 | 0.00 | 70 | 979.7 |
| 20260905231620 | 62 | 298 | 2.0 | 10.0 | 0.00 | 0.01 | 0.00 | 71 | 979.8 |
| 20260905231612 | 63 | 290 | 2.0 | 10.0 | 0.00 | 0.01 | 0.00 | 70 | 979.8 |
| 20260905230613 | 62 | 310 | 2.0 | 10.0 | 0.00 | 0.01 | 0.00 | 72 | 979.8 |
| 20260905230115 | 62 | 303 | 3.0 | 10.0 | 0.00 | 0.01 | 0.00 | 72 | 979.8 |
| 20260905225613 | 62 | 285 | 4.0 | 12.0 | 0.00 | 0.01 | 0.00 | 71 | 979.7 |
| 20260905225113 | 63 | 288 | 5.0 | 12.0 | 0.00 | 0.01 | 0.00 | 70 | 980.0 |
| 20260905224622 | 64 | 282 | 4.0 | 11.0 | 0.00 | 0.01 | 0.00 | 69 | 980.0 |
| 20260905224614 | 63 | 298 | 2.0 | 11.0 | 0.00 | 0.01 | 0.00 | 69 | 980.0 |
| 20260905223620 | 63 | 261 | 4.0 | 10.0 | 0.00 | 0.01 | 0.00 | 70 | 979.9 |
| 20260905223612 | 63 | 300 | 7.0 | 10.0 | 0.00 | 0.01 | 0.00 | 70 | 979.9 |
| 20260905222612 | 63 | 333 | 4.0 | 7.0 | 0.00 | 0.01 | 0.00 | 69 | 979.9 |
| 20260905222114 | 63 | 286 | 3.0 | 5.0 | 0.00 | 0.01 | 0.00 | 69 | 979.9 |
| 20260905221612 | 63 | 265 | 1.0 | 7.0 | 0.00 | 0.01 | 0.00 | 70 | 979.9 |
| 20260905221113 | 62 | 265 | 4.0 | 7.0 | 0.00 | 0.01 | 0.00 | 71 | 980.0 |
| 20260905220611 | 62 | 272 | 3.0 | 6.0 | 0.00 | 0.01 | 0.00 | 73 | 980.0 |
| 20260905220113 | 61 | 292 | 2.0 | 6.0 | 0.00 | 0.01 | 0.00 | 73 | 980.1 |
| 20260905215611 | 61 | 310 | 4.0 | 6.0 | 0.00 | 0.01 | 0.00 | 73 | 980.1 |
| 20260905215112 | 61 | 269 | 4.0 | 9.0 | 0.00 | 0.01 | 0.00 | 73 | 980.2 |
| 20260905214611 | 61 | 310 | 4.0 | 9.0 | 0.00 | 0.01 | 0.00 | 73 | 980.1 |
| 20260905214119 | 61 | 358 | 3.0 | 7.0 | 0.00 | 0.01 | 0.00 | 73 | 980.0 |
| 20260905214112 | 61 | 300 | 4.0 | 6.0 | 0.00 | 0.01 | 0.00 | 72 | 980.2 |
| 20260905213120 | 61 | 247 | 2.0 | 5.0 | 0.00 | 0.01 | 0.00 | 75 | 980.1 |
| 20260905213113 | 61 | 204 | 1.0 | 7.0 | 0.00 | 0.01 | 0.00 | 75 | 980.1 |
| 20260905212741 | 60 | 278 | 2.0 | 4.0 | 0.00 | 0.01 | 0.00 | 76 | 980.1 |
| 20260905212735 | 60 | 245 | 3.0 | 5.0 | 0.00 | 0.01 | 0.00 | 76 | 980.0 |
| 20260905211111 | 60 | 278 | 3.0 | 6.0 | 0.00 | 0.01 | 0.00 | 76 | 980.2 |
| 20260905210611 | 60 | 278 | 2.0 | 6.0 | 0.00 | 0.01 | 0.00 | 75 | 980.2 |
| 20260905210112 | 60 | 314 | 2.0 | 5.0 | 0.00 | 0.01 | 0.00 | 77 | 980.2 |
| 20260905205611 | 60 | 316 | 3.0 | 6.0 | 0.00 | 0.01 | 0.00 | 77 | 980.1 |
| 20260905205111 | 60 | 345 | 3.0 | 6.0 | 0.00 | 0.01 | 0.00 | 77 | 980.1 |
| 20260905204611 | 60 | 0 | 1.0 | 3.0 | 0.00 | 0.01 | 0.00 | 78 | 980.2 |
| 20260905204111 | 60 | 0 | 2.0 | 4.0 | 0.00 | 0.01 | 0.00 | 79 | 980.1 |
| 20260905203610 | 60 | 0 | 2.0 | 5.0 | 0.00 | 0.01 | 0.00 | 79 | 980.2 |
| 20260905202608 | 59 | 3 | 2.0 | 6.0 | 0.00 | 0.01 | 0.00 | 80 | 980.1 |
| 20260905202111 | 59 | 306 | 2.0 | 6.0 | 0.00 | 0.01 | 0.00 | 81 | 980.1 |
| 20260905201610 | 59 | 266 | 4.0 | 7.0 | 0.00 | 0.01 | 0.00 | 83 | 980.2 |
| 20260905201110 | 58 | 303 | 3.0 | 9.0 | 0.00 | 0.01 | 0.00 | 83 | 980.2 |
| 20260905200610 | 58 | 292 | 5.0 | 9.0 | 0.00 | 0.01 | 0.00 | 84 | 980.0 |
| 20260905200110 | 57 | 314 | 2.0 | 7.0 | 0.00 | 0.01 | 0.00 | 84 | 980.0 |
| 20260905195614 | 57 | 329 | 3.0 | 5.0 | 0.00 | 0.01 | 0.00 | 86 | 980.0 |
| 20260905195607 | 57 | 296 | 4.0 | 7.0 | 0.00 | 0.01 | 0.00 | 85 | 980.0 |
| 20260905194608 | 56 | 319 | 4.0 | 5.0 | 0.00 | 0.01 | 0.00 | 87 | 980.0 |
| 20260905194109 | 56 | 330 | 4.0 | 5.0 | 0.00 | 0.01 | 0.00 | 87 | 980.1 |
| 20260905193614 | 55 | 0 | 4.0 | 7.0 | 0.00 | 0.01 | 0.00 | 87 | 980.0 |
| 20260905193608 | 56 | 323 | 3.0 | 5.0 | 0.00 | 0.01 | 0.00 | 87 | 980.0 |
| 20260905192607 | 55 | 327 | 2.0 | 7.0 | 0.00 | 0.01 | 0.00 | 88 | 980.0 |
| 20260905192108 | 55 | 327 | 4.0 | 7.0 | 0.00 | 0.01 | 0.00 | 88 | 979.9 |
| 20260905191607 | 55 | 0 | 3.0 | 6.0 | 0.00 | 0.01 | 0.00 | 88 | 979.9 |
| 20260905191108 | 55 | 353 | 3.0 | 6.0 | 0.00 | 0.01 | 0.00 | 89 | 979.9 |
| 20260905190608 | 55 | 319 | 4.0 | 6.0 | 0.00 | 0.01 | 0.00 | 89 | 980.1 |
| 20260905190109 | 55 | 8 | 4.0 | 6.0 | 0.00 | 0.01 | 0.00 | 89 | 980.2 |
| 20260905185607 | 55 | 4 | 4.0 | 6.0 | 0.00 | 0.01 | 0.00 | 89 | 980.3 |
| 20260905185108 | 54 | 4 | 2.0 | 4.0 | 0.00 | 0.01 | 0.00 | 90 | 980.4 |
| 20260905184606 | 54 | 11 | 2.0 | 4.0 | 0.00 | 0.01 | 0.00 | 90 | 980.3 |
| 20260905184106 | 54 | 23 | 2.0 | 4.0 | 0.00 | 0.01 | 0.00 | 90 | 980.5 |
| 20260905183606 | 54 | 21 | 1.0 | 4.0 | 0.00 | 0.01 | 0.00 | 90 | 980.7 |
| 20260905183107 | 54 | 21 | 1.0 | 5.0 | 0.00 | 0.01 | 0.00 | 91 | 980.6 |
| 20260905182606 | 54 | 21 | 2.0 | 7.0 | 0.00 | 0.01 | 0.00 | 91 | 980.5 |
| 20260905182107 | 54 | 0 | 4.0 | 7.0 | 0.00 | 0.01 | 0.00 | 91 | 980.2 |
| 20260905181606 | 54 | 13 | 4.0 | 7.0 | 0.00 | 0.01 | 0.00 | 91 | 980.1 |
| 20260905181107 | 53 | 0 | 3.0 | 6.0 | 0.00 | 0.01 | 0.00 | 91 | 980.1 |
| 20260905180612 | 53 | 347 | 2.0 | 6.0 | 0.00 | 0.01 | 0.00 | 91 | 980.4 |
| 20260905180606 | 53 | 0 | 4.0 | 6.0 | 0.00 | 0.01 | 0.00 | 91 | 980.3 |
| 20260905175613 | 53 | 348 | 3.0 | 5.0 | 0.01 | 0.01 | 0.00 | 91 | 980.3 |
| 20260905175606 | 53 | 3 | 3.0 | 5.0 | 0.00 | 0.01 | 0.00 | 92 | 980.4 |
| 20260905174604 | 53 | 331 | 3.0 | 6.0 | 0.01 | 0.01 | 0.00 | 91 | 980.4 |
| 20260905174114 | 53 | 329 | 3.0 | 5.0 | 0.01 | 0.01 | 0.00 | 91 | 980.4 |
| 20260905174107 | 53 | 329 | 3.0 | 6.0 | 0.01 | 0.01 | 0.00 | 91 | 980.4 |
| 20260905173107 | 53 | 353 | 3.0 | 6.0 | 0.01 | 0.01 | 0.00 | 91 | 980.4 |
| 20260905172612 | 53 | 347 | 2.0 | 5.0 | 0.01 | 0.01 | 0.00 | 91 | 980.5 |
| 20260905172605 | 53 | 0 | 4.0 | 6.0 | 0.01 | 0.01 | 0.00 | 91 | 980.4 |
| 20260905171604 | 53 | 0 | 3.0 | 5.0 | 0.01 | 0.01 | 0.00 | 91 | 980.2 |
| 20260905171106 | 53 | 345 | 2.0 | 5.0 | 0.01 | 0.01 | 0.00 | 91 | 980.2 |
| 20260905170603 | 53 | 340 | 2.0 | 6.0 | 0.01 | 0.01 | 0.00 | 91 | 980.1 |
| 20260905170104 | 53 | 313 | 4.0 | 7.0 | 0.01 | 0.01 | 0.00 | 91 | 980.2 |
| 20260905165612 | 53 | 313 | 6.0 | 7.0 | 0.00 | 0.00 | 0.00 | 91 | 980.1 |
| 20260905165605 | 53 | 300 | 5.0 | 7.0 | 0.01 | 0.01 | 0.00 | 91 | 980.2 |
| 20260905164603 | 53 | 317 | 5.0 | 7.0 | 0.00 | 0.00 | 0.00 | 91 | 980.2 |
| 20260905164105 | 53 | 351 | 3.0 | 6.0 | 0.00 | 0.00 | 0.00 | 91 | 980.0 |
| 20260905163603 | 53 | 355 | 3.0 | 5.0 | 0.00 | 0.00 | 0.00 | 91 | 979.8 |
| 20260905163104 | 53 | 355 | 3.0 | 4.0 | 0.00 | 0.00 | 0.00 | 91 | 979.9 |
| 20260905162602 | 53 | 354 | 2.0 | 5.0 | 0.00 | 0.00 | 0.00 | 91 | 979.9 |
| 20260905162104 | 53 | 353 | 2.0 | 5.0 | 0.00 | 0.00 | 0.00 | 91 | 979.9 |
| 20260905161603 | 53 | 351 | 3.0 | 4.0 | 0.00 | 0.00 | 0.00 | 90 | 980.0 |
| 20260905161106 | 53 | 0 | 2.0 | 4.0 | 0.00 | 0.00 | 0.00 | 91 | 980.0 |
| 20260905160602 | 53 | 0 | 2.0 | 4.0 | 0.00 | 0.00 | 0.00 | 90 | 979.9 |
| 20260905160107 | 53 | 0 | 1.0 | 4.0 | 0.00 | 0.00 | 0.00 | 90 | 979.9 |
| 20260905155602 | 53 | 0 | 2.0 | 6.0 | 0.00 | 0.00 | 0.00 | 90 | 980.0 |
| 20260905155103 | 53 | 7 | 2.0 | 6.0 | 0.00 | 0.00 | 0.00 | 90 | 979.9 |
| 20260905154601 | 53 | 6 | 5.0 | 6.0 | 0.00 | 0.00 | 0.00 | 90 | 979.8 |
| 20260905154103 | 53 | 6 | 2.0 | 6.0 | 0.00 | 0.00 | 0.00 | 90 | 979.6 |
| 20260905153602 | 53 | 4 | 2.0 | 6.0 | 0.00 | 0.00 | 0.00 | 90 | 979.3 |
| 20260905153103 | 53 | 4 | 2.0 | 5.0 | 0.00 | 0.00 | 0.00 | 90 | 979.4 |
| 20260905152601 | 53 | 3 | 3.0 | 5.0 | 0.00 | 0.00 | 0.00 | 89 | 979.4 |
| 20260905152110 | 53 | 0 | 5.0 | 9.0 | 0.00 | 0.00 | 0.00 | 89 | 979.3 |
| 20260905152103 | 53 | 0 | 2.0 | 9.0 | 0.00 | 0.00 | 0.00 | 89 | 979.3 |
| 20260905151104 | 54 | 7 | 5.0 | 7.0 | 0.00 | 0.00 | 0.00 | 89 | 979.2 |
| 20260905150601 | 54 | 30 | 3.0 | 4.0 | 0.00 | 0.00 | 0.00 | 89 | 979.3 |
| 20260905145600 | 54 | 48 | 3.0 | 5.0 | 0.00 | 0.00 | 0.00 | 88 | 979.4 |
| 20260905145102 | 54 | 24 | 2.0 | 4.0 | 0.00 | 0.00 | 0.00 | 88 | 979.5 |
| 20260905144608 | 54 | 23 | 2.0 | 4.0 | 0.00 | 0.00 | 0.00 | 89 | 979.7 |
| 20260905144601 | 54 | 24 | 1.0 | 4.0 | 0.00 | 0.00 | 0.00 | 88 | 979.5 |
| 20260905143600 | 54 | 23 | 1.0 | 4.0 | 0.00 | 0.00 | 0.00 | 89 | 979.5 |
| 20260905143103 | 54 | 21 | 2.0 | 3.0 | 0.00 | 0.00 | 0.00 | 88 | 979.4 |
| 20260905142600 | 54 | 23 | 1.0 | 5.0 | 0.00 | 0.00 | 0.00 | 89 | 979.5 |
| 20260905142101 | 54 | 21 | 2.0 | 7.0 | 0.00 | 0.00 | 0.00 | 89 | 979.0 |
| 20260905141608 | 54 | 0 | 5.0 | 7.0 | 0.00 | 0.00 | 0.00 | 89 | 978.7 |
| 20260905141600 | 54 | 1 | 4.0 | 7.0 | 0.00 | 0.00 | 0.00 | 89 | 979.0 |
| 20260905140559 | 54 | 27 | 3.0 | 5.0 | 0.00 | 0.00 | 0.00 | 89 | 978.8 |
| 20260905135601 | 54 | 61 | 4.0 | 6.0 | 0.00 | 0.00 | 0.00 | 89 | 978.6 |
| 20260905135101 | 54 | 13 | 1.0 | 5.0 | 0.00 | 0.00 | 0.00 | 89 | 978.6 |
| 20260905134600 | 54 | 11 | 2.0 | 7.0 | 0.00 | 0.00 | 0.00 | 88 | 978.8 |
| 20260905134100 | 54 | 10 | 6.0 | 7.0 | 0.00 | 0.00 | 0.00 | 88 | 978.6 |
| 20260905133605 | 54 | 16 | 2.0 | 9.0 | 0.00 | 0.00 | 0.00 | 88 | 978.8 |
| 20260905133558 | 54 | 16 | 2.0 | 4.0 | 0.00 | 0.00 | 0.00 | 88 | 978.8 |
| 20260905132559 | 54 | 11 | 3.0 | 9.0 | 0.00 | 0.00 | 0.00 | 88 | 978.1 |
| 20260905132102 | 55 | 8 | 4.0 | 7.0 | 0.00 | 0.00 | 0.00 | 88 | 978.2 |
| 20260905131606 | 55 | 3 | 6.0 | 9.0 | 0.00 | 0.00 | 0.00 | 87 | 978.4 |
| 20260905131559 | 55 | 7 | 4.0 | 9.0 | 0.00 | 0.00 | 0.00 | 87 | 978.4 |
| 20260905130558 | 55 | 6 | 4.0 | 6.0 | 0.00 | 0.00 | 0.00 | 87 | 978.4 |
| 20260905130059 | 55 | 8 | 3.0 | 5.0 | 0.00 | 0.00 | 0.00 | 87 | 978.1 |
| 20260905125558 | 55 | 10 | 1.0 | 5.0 | 0.00 | 0.00 | 0.00 | 87 | 978.3 |
| 20260905125058 | 55 | 340 | 1.0 | 5.0 | 0.00 | 0.00 | 0.00 | 87 | 978.6 |
| 20260905124559 | 55 | 350 | 3.0 | 5.0 | 0.00 | 0.00 | 0.00 | 87 | 979.0 |
| 20260905124059 | 55 | 0 | 1.0 | 4.0 | 0.00 | 0.00 | 0.00 | 86 | 979.2 |
| 20260905123606 | 55 | 0 | 1.0 | 2.0 | 0.00 | 0.00 | 0.00 | 86 | 978.8 |
| 20260905123559 | 55 | 0 | 2.0 | 3.0 | 0.00 | 0.00 | 0.00 | 86 | 978.8 |
| 20260905122605 | 54 | 0 | 0.0 | 1.0 | 0.00 | 0.00 | 0.00 | 86 | 978.5 |
| 20260905122557 | 54 | 0 | 0.0 | 1.0 | 0.00 | 0.00 | 0.00 | 86 | 978.7 |
| 20260905121603 | 54 | 0 | 0.0 | 0.0 | 0.00 | 0.00 | 0.00 | 86 | 978.4 |
| 20260905121555 | 54 | 0 | 0.0 | 1.0 | 0.00 | 0.00 | 0.00 | 86 | 978.4 |
| 20260905120557 | 54 | 0 | 0.0 | 0.0 | 0.00 | 0.00 | 0.00 | 86 | 978.4 |
| 20260905120224 | 54 | 0 | 0.0 | 3.0 | 0.00 | 0.00 | 0.00 | 86 | 978.0 |
| 20260905120111 | 54 | 0 | 0.0 | 0.0 | 0.00 | 0.00 | 0.00 | 86 | 978.2 |
| 20260905114556 | 54 | 0 | 0.0 | 3.0 | 0.00 | 0.00 | 0.00 | 86 | 977.9 |
| 20260905114057 | 54 | 0 | 0.0 | 5.0 | 0.00 | 0.00 | 0.00 | 86 | 977.6 |
| 20260905113556 | 54 | 347 | 1.0 | 5.0 | 0.00 | 0.00 | 0.00 | 85 | 977.5 |
| 20260905113056 | 54 | 262 | 0.0 | 3.0 | 0.00 | 0.00 | 0.00 | 85 | 977.7 |
| 20260905112557 | 54 | 262 | 0.0 | 2.0 | 0.00 | 0.00 | 0.00 | 85 | 978.0 |
| 20260905112057 | 54 | 262 | 0.0 | 2.0 | 0.00 | 0.00 | 0.00 | 85 | 978.0 |
| 20260905111557 | 54 | 262 | 0.0 | 2.0 | 0.00 | 0.00 | 0.00 | 85 | 978.2 |
| 20260905111058 | 54 | 262 | 0.0 | 3.0 | 0.00 | 0.00 | 0.00 | 85 | 978.3 |
| 20260905110555 | 54 | 262 | 0.0 | 3.0 | 0.00 | 0.00 | 0.00 | 85 | 978.3 |
| 20260905110058 | 54 | 262 | 0.0 | 1.0 | 0.00 | 0.00 | 0.00 | 85 | 978.3 |
| 20260905105555 | 54 | 262 | 0.0 | 1.0 | 0.00 | 0.00 | 0.00 | 85 | 978.1 |
| 20260905105056 | 54 | 262 | 0.0 | 1.0 | 0.00 | 0.00 | 0.00 | 85 | 977.8 |
| 20260905104556 | 54 | 262 | 0.0 | 1.0 | 0.00 | 0.00 | 0.00 | 85 | 977.8 |
| 20260905104057 | 54 | 262 | 0.0 | 1.0 | 0.00 | 0.00 | 0.00 | 85 | 977.9 |
| 20260905103555 | 54 | 262 | 0.0 | 1.0 | 0.00 | 0.00 | 0.00 | 84 | 978.0 |
| 20260905103055 | 53 | 261 | 0.0 | 2.0 | 0.00 | 0.00 | 0.00 | 84 | 977.9 |
| 20260905102056 | 53 | 261 | 0.0 | 1.0 | 0.00 | 0.00 | 0.00 | 84 | 978.1 |
| 20260905101553 | 53 | 261 | 0.0 | 2.0 | 0.00 | 0.00 | 0.00 | 84 | 978.0 |
| 20260905101055 | 53 | 261 | 0.0 | 2.0 | 0.00 | 0.00 | 0.00 | 84 | 977.8 |
| 20260905100554 | 53 | 259 | 0.0 | 1.0 | 0.00 | 0.00 | 0.00 | 84 | 977.8 |
| 20260905100056 | 53 | 259 | 0.0 | 0.0 | 0.00 | 0.00 | 0.00 | 84 | 977.7 |
| 20260905095555 | 53 | 259 | 0.0 | 1.0 | 0.00 | 0.00 | 0.00 | 84 | 977.7 |
| 20260905095055 | 53 | 259 | 0.0 | 1.0 | 0.00 | 0.00 | 0.00 | 83 | 977.7 |
| 20260905094600 | 53 | 259 | 0.0 | 0.0 | 0.00 | 0.00 | 0.00 | 83 | 977.5 |
| 20260905094554 | 53 | 259 | 0.0 | 0.0 | 0.00 | 0.00 | 0.00 | 83 | 977.4 |
| 20260905093552 | 53 | 259 | 0.0 | 6.0 | 0.00 | 0.00 | 0.00 | 83 | 977.5 |
| 20260905093055 | 53 | 258 | 0.0 | 6.0 | 0.00 | 0.00 | 0.00 | 83 | 977.7 |
| 20260905092553 | 53 | 227 | 0.0 | 4.0 | 0.00 | 0.00 | 0.00 | 83 | 977.8 |
| 20260905092054 | 53 | 262 | 0.0 | 1.0 | 0.00 | 0.00 | 0.00 | 82 | 977.5 |
| 20260905091553 | 53 | 261 | 0.0 | 0.0 | 0.00 | 0.00 | 0.00 | 81 | 977.2 |
| 20260905091055 | 53 | 261 | 0.0 | 0.0 | 0.00 | 0.00 | 0.00 | 81 | 977.1 |
| 20260905090552 | 53 | 261 | 0.0 | 0.0 | 0.00 | 0.00 | 0.00 | 81 | 977.2 |
| 20260905090055 | 52 | 261 | 0.0 | 0.0 | 0.00 | 0.00 | 0.00 | 80 | 977.4 |
| 20260905085559 | 53 | 261 | 0.0 | 1.0 | 0.00 | 0.00 | 0.00 | 80 | 977.4 |
| 20260905085553 | 53 | 261 | 0.0 | 1.0 | 0.00 | 0.00 | 0.00 | 80 | 977.3 |
| 20260905084552 | 52 | 261 | 0.0 | 1.0 | 0.00 | 0.00 | 0.00 | 79 | 977.4 |
| 20260905084100 | 53 | 261 | 0.0 | 1.0 | 0.00 | 0.00 | 0.00 | 79 | 977.5 |
| 20260905084052 | 52 | 261 | 0.0 | 1.0 | 0.00 | 0.00 | 0.00 | 79 | 977.5 |
| 20260905083053 | 53 | 261 | 0.0 | 0.0 | 0.00 | 0.00 | 0.00 | 78 | 977.4 |
| 20260905082553 | 53 | 261 | 0.0 | 1.0 | 0.00 | 0.00 | 0.00 | 76 | 977.3 |
| 20260905082052 | 53 | 261 | 0.0 | 1.0 | 0.00 | 0.00 | 0.00 | 76 | 977.4 |
| 20260905081558 | 53 | 261 | 0.0 | 0.0 | 0.00 | 0.00 | 0.00 | 75 | 977.0 |
| 20260905081551 | 53 | 261 | 0.0 | 1.0 | 0.00 | 0.00 | 0.00 | 75 | 977.2 |
| 20260905080551 | 53 | 261 | 0.0 | 1.0 | 0.00 | 0.00 | 0.00 | 75 | 977.0 |
| 20260905080053 | 53 | 261 | 0.0 | 1.0 | 0.00 | 0.00 | 0.00 | 74 | 976.9 |
| 20260905075550 | 53 | 261 | 0.0 | 1.0 | 0.00 | 0.00 | 0.00 | 73 | 976.6 |
| 20260905075053 | 54 | 261 | 0.0 | 1.0 | 0.00 | 0.00 | 0.00 | 71 | 976.7 |
| 20260905074550 | 54 | 261 | 0.0 | 0.0 | 0.00 | 0.00 | 0.00 | 71 | 976.9 |
| 20260905074059 | 54 | 261 | 0.0 | 0.0 | 0.00 | 0.00 | 0.00 | 68 | 976.6 |
| 20260905074051 | 54 | 261 | 0.0 | 0.0 | 0.00 | 0.00 | 0.00 | 70 | 976.7 |
| 20260905073714 | 54 | 261 | 0.0 | 0.0 | 0.00 | 0.00 | 0.00 | 68 | 976.9 |
| 20260905072550 | 54 | 261 | 0.0 | 0.0 | 0.00 | 0.00 | 0.00 | 68 | 976.9 |
| 20260905072050 | 54 | 261 | 0.0 | 0.0 | 0.00 | 0.00 | 0.00 | 67 | 976.7 |
| 20260905071550 | 54 | 261 | 0.0 | 0.0 | 0.00 | 0.00 | 0.00 | 68 | 976.6 |
| 20260905071058 | 55 | 261 | 0.0 | 0.0 | 0.00 | 0.00 | 0.00 | 68 | 976.4 |
| 20260905071051 | 54 | 261 | 0.0 | 0.0 | 0.00 | 0.00 | 0.00 | 68 | 976.4 |
| 20260905070716 | 55 | 261 | 0.0 | 0.0 | 0.00 | 0.00 | 0.00 | 67 | 976.3 |
| 20260905065550 | 55 | 261 | 0.0 | 2.0 | 0.00 | 0.00 | 0.00 | 67 | 976.4 |
| 20260905065051 | 55 | 261 | 0.0 | 2.0 | 0.00 | 0.00 | 0.00 | 67 | 976.9 |
| 20260905064548 | 55 | 261 | 0.0 | 0.0 | 0.00 | 0.00 | 0.00 | 67 | 976.3 |
| 20260905064050 | 55 | 261 | 0.0 | 0.0 | 0.00 | 0.00 | 0.00 | 68 | 976.4 |
| 20260905063549 | 56 | 261 | 0.0 | 0.0 | 0.00 | 0.00 | 0.00 | 64 | 976.1 |
| 20260905063050 | 56 | 261 | 0.0 | 0.0 | 0.00 | 0.00 | 0.00 | 62 | 976.0 |
| 20260905062548 | 56 | 261 | 0.0 | 0.0 | 0.00 | 0.00 | 0.00 | 61 | 976.1 |
| 20260905062051 | 57 | 261 | 0.0 | 0.0 | 0.00 | 0.00 | 0.00 | 61 | 976.0 |
| 20260905061549 | 57 | 261 | 0.0 | 0.0 | 0.00 | 0.00 | 0.00 | 61 | 976.0 |
| 20260905061050 | 57 | 261 | 0.0 | 0.0 | 0.00 | 0.00 | 0.00 | 60 | 975.9 |
| 20260905060548 | 57 | 261 | 0.0 | 0.0 | 0.00 | 0.00 | 0.00 | 61 | 975.9 |
| 20260905060055 | 58 | 261 | 0.0 | 0.0 | 0.00 | 0.00 | 0.00 | 58 | 976.3 |
| 20260905060048 | 58 | 261 | 0.0 | 0.0 | 0.00 | 0.00 | 0.00 | 59 | 976.2 |
| 20260905055050 | 58 | 261 | 0.0 | 0.0 | 0.00 | 0.00 | 0.00 | 57 | 976.3 |
| 20260905054547 | 58 | 262 | 0.0 | 0.0 | 0.00 | 0.00 | 0.00 | 58 | 976.3 |
| 20260905054049 | 58 | 262 | 0.0 | 1.0 | 0.00 | 0.00 | 0.00 | 58 | 976.4 |
| 20260905053546 | 58 | 262 | 0.0 | 2.0 | 0.00 | 0.00 | 0.00 | 56 | 976.3 |
| 20260905053048 | 58 | 262 | 0.0 | 2.0 | 0.00 | 0.00 | 0.00 | 56 | 976.3 |
| 20260905052547 | 58 | 261 | 0.0 | 1.0 | 0.00 | 0.00 | 0.00 | 56 | 976.4 |
| 20260905052049 | 59 | 262 | 0.0 | 1.0 | 0.00 | 0.00 | 0.00 | 56 | 976.5 |
| 20260905051553 | 59 | 262 | 0.0 | 2.0 | 0.00 | 0.00 | 0.00 | 56 | 976.4 |
| 20260905051546 | 59 | 262 | 0.0 | 0.0 | 0.00 | 0.00 | 0.00 | 56 | 976.6 |
| 20260905050547 | 59 | 262 | 0.0 | 2.0 | 0.00 | 0.00 | 0.00 | 56 | 976.5 |
| 20260905050049 | 59 | 259 | 0.0 | 4.0 | 0.00 | 0.00 | 0.00 | 57 | 976.4 |
| 20260905045546 | 59 | 257 | 0.0 | 4.0 | 0.00 | 0.00 | 0.00 | 56 | 976.1 |
| 20260905045046 | 59 | 255 | 0.0 | 3.0 | 0.00 | 0.00 | 0.00 | 56 | 975.7 |
| 20260905044545 | 59 | 207 | 0.0 | 0.0 | 0.00 | 0.00 | 0.00 | 56 | 975.6 |
| 20260905044056 | 59 | 203 | 0.0 | 1.0 | 0.00 | 0.00 | 0.00 | 55 | 975.4 |
| 20260905044047 | 59 | 203 | 0.0 | 1.0 | 0.00 | 0.00 | 0.00 | 55 | 975.7 |
| 20260905043709 | 59 | 203 | 0.0 | 1.0 | 0.00 | 0.00 | 0.00 | 53 | 975.2 |
| 20260905042547 | 60 | 203 | 0.0 | 3.0 | 0.00 | 0.00 | 0.00 | 52 | 975.0 |
| 20260905042212 | 60 | 203 | 0.0 | 2.0 | 0.00 | 0.00 | 0.00 | 51 | 975.0 |
| 20260905041047 | 60 | 202 | 0.0 | 4.0 | 0.00 | 0.00 | 0.00 | 51 | 975.1 |
| 20260905040545 | 60 | 202 | 0.0 | 4.0 | 0.00 | 0.00 | 0.00 | 51 | 975.1 |
| 20260905040046 | 60 | 203 | 0.0 | 2.0 | 0.00 | 0.00 | 0.00 | 51 | 975.0 |
| 20260905035551 | 60 | 234 | 0.0 | 2.0 | 0.00 | 0.00 | 0.00 | 51 | 975.0 |
| 20260905035544 | 60 | 234 | 0.0 | 2.0 | 0.00 | 0.00 | 0.00 | 52 | 974.8 |
| 20260905034544 | 61 | 234 | 0.0 | 0.0 | 0.00 | 0.00 | 0.00 | 53 | 975.2 |
| 20260905034047 | 61 | 234 | 0.0 | 0.0 | 0.00 | 0.00 | 0.00 | 55 | 975.1 |
| 20260905033545 | 61 | 234 | 0.0 | 0.0 | 0.00 | 0.00 | 0.00 | 51 | 975.1 |
| 20260905033055 | 61 | 234 | 0.0 | 1.0 | 0.00 | 0.00 | 0.00 | 51 | 975.5 |
| 20260905033048 | 61 | 234 | 0.0 | 0.0 | 0.00 | 0.00 | 0.00 | 51 | 975.2 |
| 20260905032045 | 61 | 234 | 0.0 | 1.0 | 0.00 | 0.00 | 0.00 | 50 | 975.5 |
| 20260905031544 | 61 | 248 | 0.0 | 1.0 | 0.00 | 0.00 | 0.00 | 52 | 975.6 |
| 20260905031044 | 61 | 248 | 0.0 | 3.0 | 0.00 | 0.00 | 0.00 | 53 | 975.4 |
| 20260905030545 | 61 | 250 | 0.0 | 3.0 | 0.00 | 0.00 | 0.00 | 54 | 975.2 |
| 20260905030044 | 61 | 261 | 0.0 | 1.0 | 0.00 | 0.00 | 0.00 | 56 | 975.1 |
| 20260905025545 | 61 | 265 | 0.0 | 1.0 | 0.00 | 0.00 | 0.00 | 57 | 975.0 |
| 20260905025045 | 62 | 266 | 0.0 | 1.0 | 0.00 | 0.00 | 0.00 | 56 | 974.9 |
| 20260905024542 | 62 | 266 | 0.0 | 0.0 | 0.00 | 0.00 | 0.00 | 56 | 974.8 |
| 20260905024044 | 62 | 266 | 0.0 | 1.0 | 0.00 | 0.00 | 0.00 | 55 | 974.8 |
| 20260905023551 | 62 | 268 | 0.0 | 0.0 | 0.00 | 0.00 | 0.00 | 55 | 974.4 |
| 20260905023543 | 62 | 266 | 0.0 | 1.0 | 0.00 | 0.00 | 0.00 | 54 | 974.5 |
| 20260905022542 | 62 | 268 | 0.0 | 0.0 | 0.00 | 0.00 | 0.00 | 55 | 974.4 |
| 20260905022045 | 63 | 268 | 0.0 | 3.0 | 0.00 | 0.00 | 0.00 | 54 | 974.4 |
| 20260905021542 | 63 | 268 | 0.0 | 3.0 | 0.00 | 0.00 | 0.00 | 54 | 974.3 |
| 20260905021059 | 64 | 319 | 0.0 | 2.0 | 0.00 | 0.00 | 0.00 | 54 | 974.2 |
| 20260905021049 | 63 | 319 | 0.0 | 2.0 | 0.00 | 0.00 | 0.00 | 55 | 974.3 |